Atmospheric History
02/08/2018 18:24  to  2/9/2018 18:24
Change End Date:
To complete the export process:
1) Select all of the data below
2) Copy the data to the clipboard
3) Open a word processor such as Notepad
4) Paste the data into the word processor
5) Save the file

Date/Time (MDT), AirTemp, RH, Dewpoint ,AvgWindSpeed, GustWindSpeed, WindDirection, PrecipType, PrecipIntensity, PrecipAccumulation, PrecipRate
02/09/2018 18:14, 3, 82, -1 ,2, 6, E, None, None, ,  
02/09/2018 18:09, 4, 82, 0 ,3, 6, E, None, None, ,  
02/09/2018 18:04, 4, 82, 0 ,3, 5, E, None, None, ,  
02/09/2018 17:54, 5, 83, 1 ,1, 4, SE, None, None, ,  
02/09/2018 17:54, 5, 83, 1 ,2, 4, SE, None, None, ,  
02/09/2018 17:44, 6, 82, 1 ,1, 3, NE, None, None, ,  
02/09/2018 17:39, 6, 82, 2 ,0, 3, E, None, None, ,  
02/09/2018 17:34, 6, 82, 2 ,1, 3, E, None, None, ,  
02/09/2018 17:24, 6, 82, 2 ,1, 2, E, None, None, ,  
02/09/2018 17:24, 6, 82, 2 ,1, 2, E, None, None, ,  
02/09/2018 17:14, 6, 82, 2 ,1, 3, SE, None, None, ,  
02/09/2018 17:09, 6, 83, 2 ,2, 4, E, None, None, ,  
02/09/2018 17:04, 7, 82, 2 ,2, 4, E, None, None, ,  
02/09/2018 16:54, 7, 83, 3 ,3, 4, SE, None, None, ,  
02/09/2018 16:54, 7, 83, 3 ,3, 4, SE, None, None, ,  
02/09/2018 16:44, 6, 83, 3 ,2, 6, W, Yes, , ,  
02/09/2018 16:39, 6, 83, 2 ,4, 7, W, None, None, ,  
02/09/2018 16:34, 6, 83, 2 ,5, 7, W, None, None, ,  
02/09/2018 16:24, 7, 83, 3 ,3, 7, SW, Yes, , ,  
02/09/2018 16:24, 7, 83, 3 ,3, 7, W, Yes, , ,  
02/09/2018 16:14, 7, 83, 3 ,4, 6, NW, None, None, ,  
02/09/2018 16:09, 7, 82, 3 ,4, 7, W, None, None, ,  
02/09/2018 16:04, 7, 83, 3 ,3, 8, W, None, None, ,  
02/09/2018 15:54, 7, 82, 3 ,6, 7, W, None, None, ,  
02/09/2018 15:54, 7, 82, 3 ,6, 7, W, None, None, ,  
02/09/2018 15:44, 8, 82, 4 ,4, 6, W, None, None, ,  
02/09/2018 15:39, 9, 80, 4 ,5, 6, W, None, None, ,  
02/09/2018 15:34, 11, 80, 6 ,0, 1, W, None, None, ,  
02/09/2018 15:24, 10, 80, 6 ,1, 2, E, None, None, ,  
02/09/2018 15:24, 10, 80, 6 ,1, 2, E, None, None, ,  
02/09/2018 15:14, 10, 81, 5 ,1, 4, E, None, None, ,  
02/09/2018 15:09, 10, 81, 5 ,1, 4, NE, None, None, ,  
02/09/2018 15:04, 9, 82, 5 ,1, 6, E, None, None, ,  
02/09/2018 14:54, 9, 81, 4 ,4, 7, E, None, None, ,  
02/09/2018 14:53, 9, 81, 4 ,4, 8, E, None, None, ,  
02/09/2018 14:43, 10, 81, 5 ,6, 9, E, None, None, ,  
02/09/2018 14:39, 11, 80, 6 ,7, 9, E, None, None, ,  
02/09/2018 14:33, 12, 80, 7 ,7, 10, SE, None, None, ,  
02/09/2018 14:24, 13, 79, 8 ,4, 7, E, None, None, ,  
02/09/2018 14:23, 13, 80, 8 ,4, 5, E, None, None, ,  
02/09/2018 14:13, 12, 81, 7 ,1, 4, W, None, None, ,  
02/09/2018 14:09, 11, 81, 7 ,3, 4, W, None, None, ,  
02/09/2018 14:03, 11, 81, 6 ,2, 7, NW, None, None, ,  
02/09/2018 13:54, 11, 81, 6 ,4, 7, NW, None, None, ,  
02/09/2018 13:53, 11, 81, 6 ,3, 7, NW, None, None, ,  
02/09/2018 13:43, 11, 80, 6 ,4, 7, W, None, None, ,  
02/09/2018 13:39, 12, 79, 7 ,6, 7, W, None, None, ,  
02/09/2018 13:33, 13, 79, 8 ,4, 7, W, None, None, ,  
02/09/2018 13:24, 16, 79, 10 ,1, 6, NE, None, None, ,  
02/09/2018 13:23, 15, 78, 10 ,2, 6, E, None, None, ,  
02/09/2018 13:13, 14, 78, 9 ,3, 6, SE, None, None, ,  
02/09/2018 13:09, 14, 77, 8 ,4, 6, E, None, None, ,  
02/09/2018 13:03, 13, 77, 8 ,3, 6, E, None, None, ,  
02/09/2018 12:54, 13, 79, 8 ,2, 6, E, None, None, ,  
02/09/2018 12:53, 12, 79, 7 ,3, 6, E, None, None, ,  
02/09/2018 12:43, 11, 79, 6 ,4, 7, E, None, None, ,  
02/09/2018 12:39, 10, 80, 5 ,4, 7, E, None, None, ,  
02/09/2018 12:33, 10, 80, 5 ,4, 7, E, None, None, ,  
02/09/2018 12:24, 9, 81, 4 ,4, 7, E, None, None, ,  
02/09/2018 12:23, 9, 81, 4 ,3, 7, E, None, None, ,  
02/09/2018 12:13, 9, 81, 4 ,3, 7, E, None, None, ,  
02/09/2018 12:09, 9, 80, 4 ,5, 7, E, None, None, ,  
02/09/2018 12:03, 8, 80, 4 ,6, 9, E, None, None, ,  
02/09/2018 11:54, 9, 81, 4 ,4, 8, E, None, None, ,  
02/09/2018 11:52, 9, 80, 4 ,6, 8, E, None, None, ,  
02/09/2018 11:42, 10, 81, 5 ,4, 10, E, None, None, ,  
02/09/2018 11:39, 9, 81, 4 ,4, 10, E, None, None, ,  
02/09/2018 11:32, 8, 80, 3 ,7, 9, E, None, None, ,  
02/09/2018 11:24, 8, 80, 3 ,7, 9, E, None, None, ,  
02/09/2018 11:22, 8, 80, 3 ,7, 9, E, None, None, ,  
02/09/2018 11:12, 9, 81, 4 ,5, 9, E, None, None, ,  
02/09/2018 11:09, 10, 80, 5 ,6, 9, E, None, None, ,  
02/09/2018 11:02, 10, 82, 6 ,4, 7, SE, None, None, ,  
02/09/2018 10:54, 10, 82, 6 ,3, 7, SE, None, None, ,  
02/09/2018 10:52, 10, 82, 5 ,4, 7, E, None, None, ,  
02/09/2018 10:42, 9, 82, 5 ,6, 7, E, None, None, ,  
02/09/2018 10:39, 9, 82, 5 ,3, 7, E, None, None, ,  
02/09/2018 10:32, 9, 82, 4 ,5, 9, E, None, None, ,  
02/09/2018 10:24, 9, 82, 5 ,7, 8, E, None, None, ,  
02/09/2018 10:22, 9, 83, 5 ,4, 7, E, None, None, ,  
02/09/2018 10:12, 8, 83, 4 ,4, 7, E, None, None, ,  
02/09/2018 10:09, 7, 83, 3 ,4, 7, NE, None, None, ,  
02/09/2018 10:02, 6, 83, 2 ,5, 11, E, None, None, ,  
02/09/2018 09:54, 7, 82, 3 ,7, 11, E, None, None, ,  
02/09/2018 09:52, 7, 83, 3 ,7, 11, E, None, None, ,  
02/09/2018 09:42, 7, 83, 3 ,5, 9, E, None, None, ,  
02/09/2018 09:39, 7, 83, 3 ,6, 9, E, None, None, ,  
02/09/2018 09:32, 7, 83, 3 ,7, 9, E, None, None, ,  
02/09/2018 09:24, 7, 83, 3 ,6, 9, E, None, None, ,  
02/09/2018 09:22, 7, 84, 3 ,5, 9, E, None, None, ,  
02/09/2018 09:11, 6, 84, 2 ,4, 7, E, None, None, ,  
02/09/2018 09:09, 6, 83, 2 ,4, 7, NE, None, None, ,  
02/09/2018 09:01, 6, 83, 2 ,5, 9, E, Other, Other, ,  
02/09/2018 08:54, 6, 84, 2 ,6, 9, E, Other, Other, ,  
02/09/2018 08:51, 6, 83, 2 ,6, 9, E, Other, Other, ,  
02/09/2018 08:41, 5, 84, 1 ,4, 7, E, Other, Other, ,  
02/09/2018 08:39, 5, 84, 1 ,5, 7, E, Other, Other, ,  
02/09/2018 08:31, 4, 83, 0 ,3, 6, E, Other, Other, ,  
02/09/2018 08:24, 3, 83, -1 ,3, 6, NE, Other, Other, ,  
02/09/2018 08:21, 3, 83, -1 ,2, 6, E, Other, Other, ,  
02/09/2018 08:11, 3, 83, -1 ,4, 6, E, Other, Other, ,  
02/09/2018 08:09, 4, 83, -1 ,4, 7, NE, Other, Other, ,  
02/09/2018 08:01, 3, 83, -1 ,4, 7, E, Other, Other, ,  
02/09/2018 07:54, 4, 83, 0 ,4, 9, E, Other, Other, ,  
02/09/2018 07:51, 3, 83, -1 ,4, 9, E, Other, Other, ,  
02/09/2018 07:41, 3, 83, -1 ,6, 6, E, Other, Other, ,  
02/09/2018 07:39, 3, 83, -1 ,4, 6, E, Other, Other, ,  
02/09/2018 07:31, 3, 83, -1 ,3, 6, NE, Other, Other, ,  
02/09/2018 07:24, 3, 83, -1 ,2, 6, NE, Other, Other, ,  
02/09/2018 07:21, 3, 83, -1 ,1, 6, E, Other, Other, ,  
02/09/2018 07:11, 3, 83, -1 ,4, 7, E, Other, Other, ,  
02/09/2018 07:08, 3, 83, -1 ,4, 8, E, Other, Other, ,  
02/09/2018 07:01, 3, 83, -1 ,5, 8, E, Other, Other, ,  
02/09/2018 06:55, 4, 83, 0 ,6, 8, E, Other, Other, ,  
02/09/2018 06:51, 4, 83, 0 ,4, 9, E, Other, Other, ,  
02/09/2018 06:41, 4, 83, 0 ,4, 10, E, Other, Other, ,  
02/09/2018 06:40, 4, 83, 0 ,4, 10, E, Other, Other, ,  
02/09/2018 06:31, 4, 83, 0 ,6, 8, E, Other, Other, ,  
02/09/2018 06:25, 4, 83, 0 ,5, 9, E, Other, Other, ,  
02/09/2018 06:21, 4, 83, 0 ,7, 9, E, Other, Other, ,  
02/09/2018 06:11, 4, 83, 0 ,6, 9, E, Other, Other, ,  
02/09/2018 06:10, 4, 83, 1 ,7, 9, E, Other, Other, ,  
02/09/2018 06:00, 5, 83, 1 ,6, 11, SE, Other, Other, ,  
02/09/2018 05:55, 5, 83, 1 ,6, 11, SE, Other, Other, ,  
02/09/2018 05:50, 5, 83, 1 ,7, 11, E, Other, Other, ,  
02/09/2018 05:40, 5, 84, 1 ,6, 10, E, Other, Other, ,  
02/09/2018 05:40, 5, 84, 2 ,6, 10, E, Other, Other, ,  
02/09/2018 05:30, 6, 84, 2 ,6, 9, E, Other, Other, ,  
02/09/2018 05:25, 6, 84, 2 ,6, 7, E, Other, Other, ,  
02/09/2018 05:20, 6, 84, 2 ,4, 7, E, Other, Other, ,  
02/09/2018 05:10, 6, 84, 2 ,4, 10, NE, Other, Other, ,  
02/09/2018 05:10, 6, 84, 2 ,4, 10, NE, Other, Other, ,  
02/09/2018 05:00, 6, 84, 2 ,5, 8, E, Other, Other, ,  
02/09/2018 04:55, 6, 84, 2 ,4, 9, SE, Other, Other, ,  
02/09/2018 04:50, 6, 84, 2 ,6, 12, E, Other, Other, ,  
02/09/2018 04:40, 6, 84, 2 ,8, 11, E, Other, Other, ,  
02/09/2018 04:40, 6, 84, 2 ,8, 11, E, Other, Other, ,  
02/09/2018 04:30, 6, 84, 2 ,7, 10, E, Other, Other, ,  
02/09/2018 04:25, 6, 84, 2 ,7, 12, E, Other, Other, ,  
02/09/2018 04:20, 6, 84, 2 ,9, 12, E, Other, Other, ,  
02/09/2018 04:10, 7, 85, 3 ,7, 11, E, Other, Other, ,  
02/09/2018 04:10, 7, 85, 3 ,7, 11, E, Other, Other, ,  
02/09/2018 04:00, 7, 85, 3 ,8, 12, E, Other, Other, ,  
02/09/2018 03:55, 7, 85, 3 ,9, 12, E, Other, Other, ,  
02/09/2018 03:50, 7, 85, 3 ,7, 12, E, Other, Other, ,  
02/09/2018 03:40, 7, 85, 3 ,6, 9, E, Other, Other, ,  
02/09/2018 03:40, 7, 85, 3 ,6, 9, E, Other, Other, ,  
02/09/2018 03:30, 7, 85, 3 ,8, 11, E, Other, Other, ,  
02/09/2018 03:25, 7, 85, 3 ,7, 11, E, Other, Other, ,  
02/09/2018 03:20, 7, 85, 4 ,7, 12, E, Other, Other, ,  
02/09/2018 03:10, 8, 85, 4 ,6, 9, E, Other, Other, ,  
02/09/2018 03:09, 8, 85, 4 ,6, 9, E, Other, Other, ,  
02/09/2018 02:59, 8, 86, 4 ,5, 9, E, Other, Other, ,  
02/09/2018 02:55, 8, 86, 4 ,6, 9, E, Other, Other, ,  
02/09/2018 02:49, 8, 86, 4 ,6, 9, E, Other, Other, ,  
02/09/2018 02:40, 8, 86, 5 ,5, 9, E, Other, Other, ,  
02/09/2018 02:39, 8, 86, 5 ,4, 9, E, Other, Other, ,  
02/09/2018 02:29, 8, 86, 4 ,6, 10, E, Other, Other, ,  
02/09/2018 02:25, 8, 86, 4 ,6, 9, E, Other, Other, ,  
02/09/2018 02:19, 8, 86, 5 ,6, 9, SE, Other, Other, ,  
02/09/2018 02:10, 8, 86, 5 ,6, 9, E, Other, Other, ,  
02/09/2018 02:09, 8, 86, 5 ,6, 8, SE, Other, Other, ,  
02/09/2018 01:59, 8, 86, 5 ,5, 7, E, Other, Other, ,  
02/09/2018 01:55, 8, 86, 5 ,4, 9, E, Other, Other, ,  
02/09/2018 01:49, 8, 86, 5 ,7, 9, E, Other, Other, ,  
02/09/2018 01:40, 8, 87, 5 ,6, 9, SE, None, None, ,  
02/09/2018 01:39, 8, 87, 5 ,6, 9, SE, None, None, ,  
02/09/2018 01:29, 8, 87, 5 ,7, 10, E, None, None, ,  
02/09/2018 01:25, 8, 87, 5 ,7, 10, E, None, None, ,  
02/09/2018 01:19, 8, 87, 5 ,6, 11, E, None, None, ,  
02/09/2018 01:10, 9, 87, 6 ,6, 9, E, None, None, ,  
02/09/2018 01:09, 9, 87, 6 ,7, 9, E, None, None, ,  
02/09/2018 00:59, 9, 87, 6 ,7, 12, E, None, None, ,  
02/09/2018 00:55, 8, 87, 6 ,8, 12, E, None, None, ,  
02/09/2018 00:49, 9, 87, 6 ,9, 12, E, None, None, ,  
02/09/2018 00:40, 9, 87, 6 ,6, 11, E, None, None, ,  
02/09/2018 00:39, 9, 88, 6 ,6, 11, E, None, None, ,  
02/09/2018 00:29, 9, 88, 6 ,7, 11, E, None, None, ,  
02/09/2018 00:25, 9, 88, 6 ,8, 11, E, None, None, ,  
02/09/2018 00:19, 9, 88, 6 ,7, 12, E, None, None, ,  
02/09/2018 00:10, 9, 88, 7 ,9, 13, E, None, None, ,  
02/09/2018 00:09, 9, 88, 7 ,9, 13, E, None, None, ,  
02/08/2018 23:58, 10, 88, 7 ,7, 12, E, None, None, ,  
02/08/2018 23:55, 10, 88, 7 ,9, 12, E, None, None, ,  
02/08/2018 23:48, 10, 89, 8 ,9, 12, E, None, None, ,  
02/08/2018 23:40, 11, 89, 8 ,9, 12, E, None, None, ,  
02/08/2018 23:38, 11, 89, 8 ,8, 12, E, None, None, ,  
02/08/2018 23:28, 12, 89, 9 ,9, 11, E, None, None, ,  
02/08/2018 23:25, 12, 89, 9 ,9, 11, E, None, None, ,  
02/08/2018 23:18, 12, 89, 9 ,7, 9, E, None, None, ,  
02/08/2018 23:10, 12, 89, 10 ,6, 10, E, None, None, ,  
02/08/2018 23:08, 12, 89, 10 ,6, 10, E, None, None, ,  
02/08/2018 22:58, 12, 89, 10 ,7, 10, E, None, None, ,  
02/08/2018 22:55, 12, 89, 10 ,5, 10, E, None, None, ,  
02/08/2018 22:48, 13, 89, 10 ,4, 11, SE, None, None, ,  
02/08/2018 22:40, 13, 89, 10 ,6, 11, SE, None, None, ,  
02/08/2018 22:38, 13, 89, 10 ,6, 11, SE, None, None, ,  
02/08/2018 22:28, 13, 88, 10 ,7, 11, E, None, None, ,  
02/08/2018 22:25, 13, 88, 11 ,6, 11, E, None, None, ,  
02/08/2018 22:18, 13, 88, 10 ,7, 10, E, None, None, ,  
02/08/2018 22:10, 13, 88, 11 ,8, 12, E, None, None, ,  
02/08/2018 22:08, 13, 88, 11 ,6, 12, E, None, None, ,  
02/08/2018 21:58, 14, 88, 11 ,7, 14, E, None, None, ,  
02/08/2018 21:55, 14, 88, 11 ,9, 12, E, None, None, ,  
02/08/2018 21:48, 14, 87, 11 ,7, 12, E, None, None, ,  
02/08/2018 21:41, 15, 87, 11 ,9, 11, E, None, None, ,  
02/08/2018 21:38, 14, 87, 11 ,7, 12, E, None, None, ,  
02/08/2018 21:28, 15, 87, 12 ,6, 10, E, None, None, ,  
02/08/2018 21:25, 15, 87, 12 ,6, 14, E, None, None, ,  
02/08/2018 21:18, 15, 87, 12 ,7, 15, E, None, None, ,  
02/08/2018 21:10, 15, 86, 12 ,11, 17, E, None, None, ,  
02/08/2018 21:08, 16, 85, 12 ,12, 17, E, None, None, ,  
02/08/2018 20:58, 18, 84, 14 ,9, 16, E, None, None, ,  
02/08/2018 20:55, 18, 84, 14 ,11, 16, E, None, None, ,  
02/08/2018 20:48, 19, 83, 15 ,7, 12, E, None, None, ,  
02/08/2018 20:40, 19, 82, 15 ,7, 13, E, None, None, ,  
02/08/2018 20:38, 19, 82, 15 ,6, 13, E, None, None, ,  
02/08/2018 20:27, 21, 79, 16 ,8, 12, E, None, None, ,  
02/08/2018 20:25, 21, 78, 16 ,8, 12, E, None, None, ,  
02/08/2018 20:17, 23, 77, 17 ,6, 12, E, None, None, ,  
02/08/2018 20:10, 24, 76, 18 ,6, 13, E, None, None, ,  
02/08/2018 20:07, 24, 75, 18 ,4, 13, E, None, None, ,  
02/08/2018 19:57, 30, 65, 20 ,10, 16, SE, None, None, ,  
02/08/2018 19:55, 33, 60, 21 ,9, 16, SE, None, None, ,  
02/08/2018 19:47, 36, 58, 23 ,4, 4, E, None, None, ,  
02/08/2018 19:40, 36, 60, 23 ,2, 4, NE, None, None, ,  
02/08/2018 19:37, 36, 60, 23 ,1, 5, NE, None, None, ,  
02/08/2018 19:27, 35, 61, 24 ,3, 6, N, None, None, ,  
02/08/2018 19:25, 36, 60, 24 ,4, 6, N, None, None, ,  
02/08/2018 19:17, 36, 57, 23 ,2, 6, N, None, None, ,  
02/08/2018 19:10, 37, 56, 23 ,1, 8, SE, None, None, ,  
02/08/2018 19:07, 37, 56, 23 ,2, 8, N, None, None, ,  
02/08/2018 18:57, 37, 57, 23 ,3, 7, NW, None, None, ,  
02/08/2018 18:55, 37, 57, 23 ,2, 6, NW, None, None, ,  
02/08/2018 18:47, 37, 55, 23 ,2, 9, SW, None, None, ,  
02/08/2018 18:40, 37, 54, 22 ,4, 12, N, None, None, ,  
02/08/2018 18:37, 37, 54, 23 ,7, 12, W, None, None, ,  
02/08/2018 18:27, 37, 57, 23 ,4, 11, NW, None, None, ,  
02/08/2018 18:24, 37, 55, 23 ,1, 11, NE, None, None, ,  
Change End Date:

Copyright © 1998-2015 Vaisala, Inc.
All Rights Reserved
Send comments about the data to:
SCAN Web ® is a registered trademark of Vaisala, Inc.
SCAN Web Version 6.0